Location: St. Louis
(38.6270°N, 90.1994°W)
Time: 08:57:36
(UTC-06:00)

SR - Pass Details

Date: 06 December 2021
Orbit: 582 x 872 km, 66.7° (Epoch: 21 January)

Event Time Altitude Azimuth Distance (km) Brightness Sun altitude
Rises 00:16:08 0° 260° (W) 2,948 - -73.1°
Reaches altitude 10° 00:20:00 10° 293° (WNW) 1,983 - -72.8°
Maximum altitude 00:21:37 12° 314° (NW) 1,852 - -72.7°
Drops below altitude 10° 00:23:12 10° 336° (NNW) 1,948 - -72.6°
Sets 00:26:55 0° 9° (N) 2,823 - -72.2°
